GW5622 Weather Reports


Display with metric or nautical units.
time (UTC)temp
F
wind
direction
speed
MPH
gust
MPH
rain 1hr
in
rain 24hr
in
rain mn
in
humidity
%
barometer
mb
20260504000508 65 249 4.0 7.0 0.00 0.00 0.00 28 1005.2
20260504000013 65 237 3.0 10.0 0.00 0.00 0.00 27 1005.3
20260503235508 65 253 5.0 12.0 0.00 0.00 0.00 27 1005.4
20260503235008 65 246 4.0 12.0 0.00 0.00 0.00 27 1005.5
20260503234522 65 240 4.0 9.0 0.00 0.00 0.00 27 1005.6
20260503234005 66 226 4.0 9.0 0.00 0.00 0.00 27 1005.6
20260503233508 66 245 3.0 13.0 0.00 0.00 0.00 28 1005.8
20260503233024 65 256 6.0 13.0 0.00 0.00 0.00 27 1005.9
20260503232509 65 255 4.0 13.0 0.00 0.00 0.00 27 1005.9
20260503232008 66 302 6.0 14.0 0.00 0.00 0.00 27 1006.1
20260503231541 66 237 8.0 14.0 0.00 0.00 0.00 27 1006.1
20260503231009 66 283 7.0 14.0 0.00 0.00 0.00 27 1006.1
20260503230505 66 268 8.0 13.0 0.00 0.00 0.00 27 1006.2
20260503230013 66 273 5.0 10.0 0.00 0.00 0.00 28 1006.2
20260503225505 66 233 3.0 12.0 0.00 0.00 0.00 27 1006.1
20260503225009 66 269 4.0 12.0 0.00 0.00 0.00 28 1006.2
20260503224528 66 244 2.0 8.0 0.00 0.00 0.00 27 1006.1
20260503224009 65 254 3.0 14.0 0.00 0.00 0.00 28 1006.3
20260503223510 66 248 6.0 14.0 0.00 0.00 0.00 27 1006.4
20260503223024 66 268 4.0 12.0 0.00 0.00 0.00 28 1006.3
20260503222509 66 229 7.0 12.0 0.00 0.00 0.00 26 1006.5
20260503222012 66 250 6.0 11.0 0.00 0.00 0.00 27 1006.6
20260503221503 66 249 5.0 14.0 0.00 0.00 0.00 27 1006.7
20260503221005 66 317 6.0 14.0 0.00 0.00 0.00 26 1006.7
20260503220506 66 325 8.0 14.0 0.00 0.00 0.00 27 1006.7
20260503220012 66 251 7.0 16.0 0.00 0.00 0.00 27 1006.8
20260503215505 66 312 9.0 16.0 0.00 0.00 0.00 26 1006.9
20260503215006 66 275 7.0 17.0 0.00 0.00 0.00 28 1006.9
20260503214514 66 291 10.0 17.0 0.00 0.00 0.00 27 1007.0
20260503214008 66 302 8.0 13.0 0.00 0.00 0.00 27 1007.0
20260503213509 66 256 6.0 14.0 0.00 0.00 0.00 28 1007.1
20260503213018 66 319 8.0 14.0 0.00 0.00 0.00 27 1007.2
20260503212507 65 270 6.0 9.0 0.00 0.00 0.00 28 1007.2
20260503212007 65 252 4.0 12.0 0.00 0.00 0.00 29 1007.2
20260503211525 65 247 5.0 15.0 0.00 0.00 0.00 28 1007.3
20260503211010 65 277 6.0 15.0 0.00 0.00 0.00 29 1007.3
20260503210506 65 300 7.0 13.0 0.00 0.00 0.00 28 1007.4
20260503210016 65 338 5.0 12.0 0.00 0.00 0.00 29 1007.5
20260503205508 65 318 6.0 12.0 0.00 0.00 0.00 27 1007.6
20260503205007 65 307 1.0 12.0 0.00 0.00 0.00 29 1007.6
20260503204512 65 254 5.0 14.0 0.00 0.00 0.00 29 1007.7
20260503204007 64 309 10.0 15.0 0.00 0.00 0.00 28 1007.8
20260503203507 65 229 7.0 15.0 0.00 0.00 0.00 27 1007.9
20260503203022 65 319 6.0 14.0 0.00 0.00 0.00 29 1008.0
20260503202508 64 330 6.0 15.0 0.00 0.00 0.00 30 1008.1
20260503202011 63 306 10.0 15.0 0.00 0.00 0.00 29 1008.1
20260503201525 63 267 7.0 15.0 0.00 0.00 0.00 28 1008.3
20260503201007 63 294 10.0 14.0 0.00 0.00 0.00 28 1008.4
20260503200509 63 293 5.0 14.0 0.00 0.00 0.00 29 1008.5
20260503200026 63 273 9.0 14.0 0.00 0.00 0.00 29 1008.5
20260503195506 63 288 9.0 14.0 0.00 0.00 0.00 30 1008.7
20260503195005 62 295 8.0 15.0 0.00 0.00 0.00 29 1008.7
20260503194518 62 266 7.0 18.0 0.00 0.00 0.00 28 1008.7
20260503194004 62 279 9.0 18.0 0.00 0.00 0.00 29 1008.8
20260503193506 62 255 8.0 15.0 0.00 0.00 0.00 28 1008.8
20260503193015 62 275 7.0 16.0 0.00 0.00 0.00 29 1008.9
20260503192507 63 287 6.0 16.0 0.00 0.00 0.00 28 1008.9
20260503192006 63 330 9.0 16.0 0.00 0.00 0.00 29 1009.0
20260503191521 62 290 10.0 18.0 0.00 0.00 0.00 29 1009.0
20260503191013 63 281 13.0 18.0 0.00 0.00 0.00 28 1009.1
20260503190509 62 279 7.0 18.0 0.00 0.00 0.00 29 1009.1
20260503190025 61 281 10.0 19.0 0.00 0.00 0.00 30 1009.2
20260503185513 61 254 11.0 19.0 0.00 0.00 0.00 30 1009.1
20260503185006 61 298 8.0 18.0 0.00 0.00 0.00 30 1009.3
20260503184509 62 314 10.0 17.0 0.00 0.00 0.00 31 1009.2
20260503184004 62 262 8.0 15.0 0.00 0.00 0.00 31 1009.3
20260503183504 63 323 4.0 16.0 0.00 0.00 0.00 32 1009.4
20260503183012 64 305 4.0 16.0 0.00 0.00 0.00 28 1009.5
20260503182509 64 322 5.0 16.0 0.00 0.00 0.00 35 1009.6
20260503182009 63 323 3.0 14.0 0.00 0.00 0.00 32 1009.6
20260503181520 62 333 6.0 15.0 0.00 0.00 0.00 31 1009.6
20260503181006 62 301 6.0 15.0 0.00 0.00 0.00 32 1009.7
20260503180512 62 311 5.0 15.0 0.00 0.00 0.00 30 1009.8
20260503180029 62 293 8.0 14.0 0.00 0.00 0.00 30 1009.8
20260503175509 62 287 4.0 14.0 0.00 0.00 0.00 32 1009.9
20260503175010 61 292 7.0 14.0 0.00 0.00 0.00 31 1010.1
20260503174529 61 360 6.0 18.0 0.00 0.00 0.00 30 1010.1
20260503174007 61 342 7.0 18.0 0.00 0.00 0.00 31 1010.3
20260503173504 60 333 6.0 16.0 0.00 0.00 0.00 32 1010.4
20260503173015 60 306 6.0 14.0 0.00 0.00 0.00 31 1010.5
20260503172507 60 329 8.0 16.0 0.00 0.00 0.00 31 1010.7
20260503172007 60 259 6.0 16.0 0.00 0.00 0.00 32 1010.6
20260503171519 59 292 10.0 16.0 0.00 0.00 0.00 32 1010.6
20260503171011 59 295 9.0 16.0 0.00 0.00 0.00 31 1010.9
20260503170509 59 344 6.0 16.0 0.00 0.00 0.00 32 1010.9
20260503151004 54 310 3.0 9.0 0.00 0.00 0.00 38 1011.0
20260503150509 54 309 4.0 13.0 0.00 0.00 0.00 36 1011.1
20260503131010 47 337 4.0 10.0 0.00 0.00 0.00 62 1010.7
20260503130513 47 279 4.0 10.0 0.00 0.00 0.00 63 1010.7
20260503110508 40 296 1.0 3.0 0.00 0.00 0.00 88 1009.5
20260503090509 42 281 0.0 2.0 0.00 0.00 0.00 83 1009.6
20260503081527 43 195 0.0 2.0 0.00 0.00 0.00 80 1009.4
20260503081009 43 195 1.0 2.0 0.00 0.00 0.00 79 1009.4
20260503080508 44 136 0.0 2.0 0.00 0.00 0.00 78 1009.4
20260503072505 46 136 0.0 2.0 0.00 0.00 0.00 74 1009.7
20260503072007 47 136 0.0 0.0 0.00 0.00 0.00 74 1009.7
20260503071519 47 136 0.0 0.0 0.00 0.00 0.00 74 1009.8
20260503071006 47 136 0.0 0.0 0.00 0.00 0.00 74 1009.8
20260503070509 47 136 0.0 0.0 0.00 0.00 0.00 74 1009.8
20260503055008 50 136 0.0 2.0 0.00 0.00 0.00 71 1010.3
20260503054532 50 136 0.0 2.0 0.00 0.00 0.00 70 1010.3
20260503054009 50 136 0.0 2.0 0.00 0.00 0.00 70 1010.3
20260503053508 50 136 0.0 2.0 0.00 0.00 0.00 70 1010.4
20260503053022 50 136 0.0 2.0 0.00 0.00 0.00 71 1010.3
20260503052508 50 136 0.0 2.0 0.00 0.00 0.00 70 1010.3
20260503052007 51 116 0.0 2.0 0.00 0.00 0.00 70 1010.3
20260503051509 51 38 0.0 2.0 0.00 0.00 0.00 69 1010.3
20260503051004 51 38 1.0 2.0 0.00 0.00 0.00 69 1010.3
20260503050503 51 115 1.0 1.0 0.00 0.00 0.00 69 1010.3
20260503050014 51 101 0.0 2.0 0.00 0.00 0.00 68 1010.4
20260503045504 51 101 0.0 2.0 0.00 0.00 0.00 68 1010.4
20260503045005 51 105 0.0 2.0 0.00 0.00 0.00 67 1010.5
20260503044520 51 105 0.0 2.0 0.00 0.00 0.00 67 1010.5
20260503044009 52 105 0.0 2.0 0.00 0.00 0.00 67 1010.4
20260503043513 52 78 0.0 2.0 0.00 0.00 0.00 67 1010.4
20260503043023 52 78 0.0 2.0 0.00 0.00 0.00 66 1010.5
20260503042509 52 96 0.0 2.0 0.00 0.00 0.00 66 1010.5
20260503042010 52 111 0.0 2.0 0.00 0.00 0.00 66 1010.4
20260503041527 52 111 0.0 2.0 0.00 0.00 0.00 65 1010.4
20260503041005 52 111 0.0 2.0 0.00 0.00 0.00 65 1010.5
20260503040504 52 93 0.0 2.0 0.00 0.00 0.00 65 1010.5
20260503040016 52 93 0.0 2.0 0.00 0.00 0.00 65 1010.6
20260503035505 52 84 0.0 2.0 0.00 0.00 0.00 65 1010.6
20260503035006 52 108 0.0 2.0 0.00 0.00 0.00 66 1010.6
20260503034516 52 88 0.0 2.0 0.00 0.00 0.00 65 1010.6
20260503034007 52 71 0.0 2.0 0.00 0.00 0.00 65 1010.7
20260503033507 52 71 0.0 2.0 0.00 0.00 0.00 65 1010.8
20260503033021 53 69 0.0 2.0 0.00 0.00 0.00 65 1010.9
20260503032509 53 69 0.0 2.0 0.00 0.00 0.00 64 1010.9
20260503032010 53 64 0.0 2.0 0.00 0.00 0.00 64 1010.9
20260503031530 53 138 1.0 3.0 0.00 0.00 0.00 64 1010.9
20260503031007 53 140 1.0 3.0 0.00 0.00 0.00 65 1010.9
20260503030509 53 134 1.0 2.0 0.00 0.00 0.00 65 1011.1
20260503030028 53 125 0.0 2.0 0.00 0.00 0.00 65 1011.2
20260503025504 53 141 1.0 2.0 0.00 0.00 0.00 64 1011.4
20260503025007 53 158 1.0 2.0 0.00 0.00 0.00 64 1011.5
20260503024514 53 80 1.0 2.0 0.00 0.00 0.00 64 1011.5
20260503024010 54 71 1.0 2.0 0.00 0.00 0.00 64 1011.4
20260503023507 54 352 0.0 2.0 0.00 0.00 0.00 63 1011.6
20260503023018 54 352 0.0 2.0 0.00 0.00 0.00 62 1011.5
20260503022507 54 318 1.0 4.0 0.00 0.00 0.00 61 1011.5
20260503022010 54 338 0.0 6.0 0.00 0.00 0.00 61 1011.3
20260503021523 54 69 1.0 5.0 0.00 0.00 0.00 61 1011.2
20260503021010 54 61 1.0 3.0 0.00 0.00 0.00 60 1011.2
20260503020515 54 124 2.0 3.0 0.00 0.00 0.00 61 1011.4
20260503020024 55 81 1.0 2.0 0.00 0.00 0.00 60 1011.5
20260503015507 55 60 0.0 2.0 0.00 0.00 0.00 60 1011.6
20260503015008 55 109 0.0 2.0 0.00 0.00 0.00 60 1011.6
20260503014512 55 84 0.0 2.0 0.00 0.00 0.00 59 1011.7
20260503014006 55 11 0.0 2.0 0.00 0.00 0.00 63 1011.7
20260503013504 55 49 0.0 2.0 0.00 0.00 0.00 60 1011.7
20260503013029 56 49 1.0 3.0 0.00 0.00 0.00 60 1011.9
20260503012508 56 131 2.0 3.0 0.00 0.00 0.00 60 1012.0
20260503012011 56 360 0.0 2.0 0.00 0.00 0.00 58 1012.0
20260503011524 56 360 0.0 2.0 0.00 0.00 0.00 56 1012.0
20260503011008 56 203 0.0 2.0 0.00 0.00 0.00 56 1012.0
20260503010507 56 203 0.0 2.0 0.00 0.00 0.00 55 1012.0
20260503010028 56 203 0.0 2.0 0.00 0.00 0.00 54 1012.0
20260503005511 57 203 0.0 2.0 0.00 0.00 0.00 53 1012.1
20260503005008 57 203 0.0 2.0 0.00 0.00 0.00 54 1012.1
20260503004525 57 203 1.0 2.0 0.00 0.00 0.00 52 1012.1
20260503004008 57 217 0.0 2.0 0.00 0.00 0.00 52 1012.1
20260503003503 57 222 0.0 2.0 0.00 0.00 0.00 53 1012.1
20260503003022 58 222 0.0 8.0 0.00 0.00 0.00 51 1012.2
20260503002507 59 243 1.0 11.0 0.00 0.00 0.00 50 1012.5
20260503002010 59 280 5.0 12.0 0.00 0.00 0.00 49 1012.7
20260503001519 59 274 7.0 12.0 0.00 0.00 0.00 47 1012.7
20260503001007 59 287 4.0 10.0 0.00 0.00 0.00 46 1012.7